Home > Weather > Newark > Past weeks

Flag for U.S.A. Weather for the Past 2 Weeks in Newark, New Jersey, U.S.A.

Now
16 °F

Passing clouds.


Feels Like: 4 °F
Forecast: 5 / 37 °F
Wind: 9 mph from West

Location: Newark International Airport

Current Time: Feb 14, 2016 at 7:14:11 PM

Latest Report: Feb 14, 2016 at 5:51 PM


Visibility: 10 mi

Pressure: 30.52 "Hg

Humidity: 25%

Dew point: -14 °F

Location of NewarkLocation

Historic Weather in Newark — Graph

°F

Newark Temperature Yesterday

Maximum temperature yesterday: 24 °F (at 8:51 AM)
Minimum temperature yesterday: 7 °F (at 9:51 PM)
Average temperature yesterday: 17 °F

High & Low Weather Summary for the Past Weeks

 TemperatureHumidityPressure
High58 °F (Feb 3, 2:51 PM)100% (Feb 3, 11:51 PM)30.55 "Hg (Feb 3, 11:51 PM)
Low1 °F (Feb 14, 6:51 AM)20% (Feb 14, 2:51 PM)29.57 "Hg (Feb 9, 2:51 PM)
Average35 °F61%30.01 "Hg
* Reported Jan 30 4:51 PM — Feb 14 4:51 PM, Newark, Weather by CustomWeather, © 2016

Note: Actual official high and low records may vary slightly from our data, if they occured in-between our weather recording intervals... More about our weather records

Advertising

Newark Weather History for the Previous 24 Hours

 ConditionsComfort  
Time TempWeatherWind HumidityBarometerVisibility
4:51 PM
Sun, Feb 14
16 °FSunny.7 mph22%30.50 "Hg10 mi
3:51 PM17 °FSunny.12 mph20%30.48 "Hg10 mi
2:51 PM17 °FSunny.14 mph20%30.49 "Hg10 mi
1:51 PM15 °FSunny.7 mph21%30.50 "Hg10 mi
12:51 PM14 °FSunny.9 mph22%30.52 "Hg10 mi
11:51 AM11 °FPassing clouds.12 mph25%30.52 "Hg10 mi
10:51 AM8 °FPassing clouds.9 mph29%30.54 "Hg10 mi
9:51 AM5 °FPassing clouds.22 mph31%30.55 "Hg10 mi
8:51 AM3 °FPassing clouds.18 mph38%30.54 "Hg10 mi
7:51 AM2 °FPassing clouds.15 mph40%30.53 "Hg10 mi
6:51 AM1 °FPassing clouds.13 mph40%30.50 "Hg10 mi
5:51 AM2 °FClear.18 mph40%30.45 "Hg10 mi
4:51 AM3 °FPassing clouds.15 mph47%30.42 "Hg10 mi
3:51 AM5 °FPassing clouds.10 mph42%30.39 "Hg10 mi
2:51 AM5 °FPassing clouds.18 mph38%30.36 "Hg10 mi
1:51 AM6 °FPassing clouds.16 mph37%30.35 "Hg10 mi
12:51 AM6 °FPassing clouds.23 mph37%30.34 "Hg10 mi
11:51 PM
Sat, Feb 13
7 °FPassing clouds.17 mph37%30.32 "Hg10 mi
10:51 PM7 °FPassing clouds.24 mph39%30.32 "Hg10 mi
9:51 PM7 °FPassing clouds.13 mph39%30.33 "Hg10 mi
8:51 PM8 °FPassing clouds.14 mph35%30.32 "Hg10 mi
7:51 PM9 °FPassing clouds.22 mph32%30.31 "Hg10 mi
Weather by CustomWeather, © 2016

See weather overviewHow to use our weather pages